,,�O�C���x [��],����1,�O�C���x [��],����2,���ԉ��x [��],����3,���Ԏ��x [��],����4,�Q�����x [��],����5,�Q�����x [��],����6,1�K�z�[��(��󒲎�)���x [��],����7,���� [��],����8
2003/12/1,0:00,13.8,0,78.2,0,23.2,0,53.2,0,20.7,0,,1,22.7,0,14.8,0
2003/12/1,0:15,13.7,0,79.5,0,23.2,0,53.2,0,20.8,0,,1,22.7,0,14.9,0
2003/12/1,0:30,13.3,0,85.9,0,23.1,0,53.1,0,20.8,0,,1,22.6,0,15.1,0
2003/12/1,0:45,13.5,0,81.7,0,23.1,0,53.1,0,20.8,0,,1,22.6,0,15.2,0
2003/12/1,1:00,13.3,0,84.6,0,23,0,53.1,0,20.8,0,,1,22.6,0,15.4,0
2003/12/1,1:15,13.3,0,80.8,0,23,0,52.9,0,20.8,0,,1,22.5,0,15.5,0
2003/12/1,1:30,13.1,0,83.3,0,23,0,52.8,0,20.8,0,,1,22.5,0,15.7,0
2003/12/1,1:45,13.2,0,78.9,0,22.9,0,52.6,0,20.8,0,,1,22.5,0,15.8,0
2003/12/1,2:00,12.8,0,81.2,0,22.9,0,52.6,0,20.8,0,,1,22.5,0,16,0
2003/12/1,2:15,12.5,0,83.5,0,22.9,0,52.5,0,20.8,0,,1,22.4,0,16.1,0
2003/12/1,2:30,11.8,0,88.9,0,22.9,0,52.4,0,20.8,0,,1,22.4,0,16.3,0
2003/12/1,2:45,12.1,0,84.8,0,22.9,0,52.1,0,20.7,0,,1,22.3,0,16.4,0
2003/12/1,3:00,11.8,0,87,0,22.8,0,52,0,20.7,0,,1,22.3,0,16.6,0
2003/12/1,3:15,11.8,0,85.5,0,22.8,0,51.8,0,20.7,0,,1,22.3,0,16.7,0
2003/12/1,3:30,11.9,0,83.3,0,22.8,0,51.7,0,20.7,0,,1,22.2,0,16.8,0
2003/12/1,3:45,12,0,82.5,0,22.8,0,51.4,0,20.7,0,,1,22.2,0,17,0
2003/12/1,4:00,12,0,81.2,0,22.8,0,51.3,0,20.7,0,,1,22.2,0,17.1,0
2003/12/1,4:15,12.1,0,79.5,0,22.8,0,51,0,20.7,0,,1,22.2,0,17.2,0
2003/12/1,4:30,12,0,79.6,0,22.7,0,50.9,0,20.6,0,,1,22.1,0,17.4,0
2003/12/1,4:45,12,0,81,0,22.7,0,50.9,0,20.6,0,,1,22.1,0,17.5,0
2003/12/1,5:00,11.4,0,86.3,0,22.7,0,50.7,0,20.6,0,,1,22.1,0,17.6,0
2003/12/1,5:15,11,0,91.2,0,22.7,0,50.7,0,20.6,0,,1,22.1,0,17.8,0
2003/12/1,5:30,11.1,0,90.3,0,22.7,0,50.6,0,20.5,0,,1,22,0,17.9,0
2003/12/1,5:45,11.1,0,89.2,0,22.7,0,50.5,0,20.5,0,,1,22,0,18,0
2003/12/1,6:00,10.8,0,92.4,0,22.7,0,50.4,0,20.5,0,,1,22,0,18.1,0
2003/12/1,6:15,11.3,0,88.8,0,22.7,0,50.3,0,20.5,0,,1,22,0,18.2,0
2003/12/1,6:30,11.2,0,90,0,22.7,0,50.3,0,20.5,0,,1,22,0,18.3,0
2003/12/1,6:45,11.2,0,91.9,0,22.8,0,49.9,0,20.5,0,,1,22,0,16.2,0
2003/12/1,7:00,11.6,0,91,0,23,0,50.5,0,20.6,0,,1,22.1,0,16.3,0
2003/12/1,7:15,11.3,0,89.3,0,23,0,50.4,0,20.7,0,,1,22.3,0,16.4,0
2003/12/1,7:30,11.5,0,90.8,0,23,0,50.7,0,20.8,0,,1,22.3,0,16.5,0
2003/12/1,7:45,11.7,0,87.9,0,23.2,0,50,0,20.9,0,,1,22.4,0,14.1,0
2003/12/1,8:00,11.7,0,90,0,23.2,0,50.1,0,20.9,0,,1,22.5,0,14.2,0
2003/12/1,8:15,11.9,0,86.2,0,23.2,0,50,0,21,0,,1,22.5,0,14.3,0
2003/12/1,8:30,12.2,0,86,0,23.1,0,50.2,0,21,0,,1,22.5,0,13.7,0
2003/12/1,8:45,12.3,0,84.7,0,23.1,0,50.3,0,21.1,0,,1,22.5,0,13.8,0
2003/12/1,9:00,12.3,0,84.3,0,23,0,50,0,21.1,0,,1,22.4,0,14,0
2003/12/1,9:15,12.5,0,83.9,0,22.9,0,49.6,0,21.1,0,,1,22.3,0,14.1,0
2003/12/1,9:30,12.6,0,82.5,0,22.9,0,49,0,21.1,0,,1,22.2,0,14.2,0
2003/12/1,9:45,12.5,0,82.1,0,22.8,0,49.4,0,21.1,0,,1,22.2,0,14.3,0
2003/12/1,10:00,12.5,0,82.4,0,22.9,0,49.3,0,21.1,0,,1,22.2,0,14.3,0
2003/12/1,10:15,12.6,0,82.9,0,22.9,0,49.4,0,21.1,0,,1,22.2,0,14.5,0
2003/12/1,10:30,12.4,0,84.3,0,22.8,0,49.4,0,21.1,0,,1,22.1,0,14.6,0
2003/12/1,10:45,12.4,0,83.6,0,22.9,0,49.2,0,21.1,0,,1,22.2,0,14.7,0
2003/12/1,11:00,12.4,0,82.3,0,22.9,0,49.2,0,21.2,0,,1,22.1,0,14.9,0
2003/12/1,11:15,12.4,0,84.8,0,22.8,0,49.3,0,21.2,0,,1,22.1,0,15,0
2003/12/1,11:30,12.3,0,84.9,0,22.9,0,49.2,0,21.2,0,,1,22.1,0,15.2,0
2003/12/1,11:45,12.2,0,87.7,0,22.8,0,49.3,0,21.2,0,,1,22.1,0,15.4,0
2003/12/1,12:00,11.6,0,95.1,0,22.8,0,49.4,0,21.2,0,,1,22,0,15.5,0
2003/12/1,12:15,11.1,0,97,0,22.8,0,49.4,0,21.2,0,,1,22,0,15.7,0
2003/12/1,12:30,10.6,0,98,0,22.7,0,49.5,0,21.2,0,,1,22,0,15.9,0
2003/12/1,12:45,10.7,0,97.4,0,22.9,0,49.1,0,21.2,0,,1,22,0,16,0
2003/12/1,13:00,11,0,97.1,0,22.9,0,49.2,0,21.2,0,,1,22,0,15.6,0
2003/12/1,13:15,11.2,0,97.1,0,22.9,0,49.2,0,21.2,0,,1,22,0,15.7,0
2003/12/1,13:30,11.3,0,97.9,0,22.8,0,49.2,0,21.2,0,,1,22,0,15.8,0
2003/12/1,13:45,11.3,0,97.1,0,22.7,0,49,0,21.2,0,,1,22,0,16,0
2003/12/1,14:00,11.5,0,96.8,0,22.8,0,48.8,0,21.2,0,,1,22,0,16.1,0
2003/12/1,14:15,11.5,0,96.9,0,23,0,48.4,0,21.2,0,,1,22.1,0,16.2,0
2003/12/1,14:30,11.5,0,97.1,0,23.1,0,48.1,0,21.2,0,,1,22.2,0,16.4,0
2003/12/1,14:45,11.3,0,96.9,0,23.2,0,48.2,0,21.3,0,,1,22.3,0,16.5,0
2003/12/1,15:00,11.5,0,98,0,23.1,0,48.3,0,21.3,0,,1,22.3,0,16.7,0
2003/12/1,15:15,11.3,0,98.6,0,23.2,0,47.8,0,21.3,0,,1,22.3,0,16.8,0
2003/12/1,15:30,11.4,0,99.9,0,23.2,0,48.2,0,21.3,0,,1,22.3,0,16.9,0
2003/12/1,15:45,11,0,100,0,23.2,0,48.2,0,21.4,0,,1,22.3,0,15.7,0
2003/12/1,16:00,10.8,0,100,0,23.2,0,48.1,0,21.4,0,,1,22.3,0,15.7,0
2003/12/1,16:15,10.6,0,99.9,0,23.3,0,48.2,0,21.4,0,,1,22.3,0,15.9,0
2003/12/1,16:30,10.4,0,99.6,0,23.2,0,49,0,21.4,0,,1,22.3,0,16,0
2003/12/1,16:45,10.3,0,95.8,0,23.3,0,49.2,0,21.5,0,,1,22.3,0,16.2,0
2003/12/1,17:00,10.5,0,96.1,0,23.3,0,48.6,0,21.5,0,,1,22.3,0,16.3,0
2003/12/1,17:15,10.4,0,94.9,0,23.3,0,48,0,21.5,0,,1,22.3,0,15,0
2003/12/1,17:30,10.6,0,95.9,0,23.3,0,47.6,0,21.5,0,,1,22.3,0,15.2,0
2003/12/1,17:45,10.3,0,94.3,0,23.2,0,47.5,0,21.5,0,,1,22.2,0,15.3,0
2003/12/1,18:00,10.4,0,92.7,0,23.1,0,47,0,21.6,0,,1,22.2,0,15.5,0
2003/12/1,18:15,10.4,0,90.8,0,23.2,0,46.5,0,21.6,0,,1,22.3,0,15.6,0
2003/12/1,18:30,10.4,0,92.4,0,23.1,0,46.4,0,21.5,0,,1,22.3,0,15.7,0
2003/12/1,18:45,10.3,0,95.2,0,23.2,0,46,0,21.5,0,,1,22.3,0,15.9,0
2003/12/1,19:00,10.1,0,96.6,0,23.1,0,46.2,0,21.5,0,,1,22.3,0,16.1,0
2003/12/1,19:15,10.2,0,94.2,0,23.2,0,45.8,0,21.5,0,,1,22.3,0,16.2,0
2003/12/1,19:30,10.2,0,92.6,0,23.2,0,45.5,0,21.5,0,,1,22.3,0,16.4,0
2003/12/1,19:45,10.2,0,92.5,0,23.2,0,45.4,0,21.5,0,,1,22.3,0,15.6,0
2003/12/1,20:00,10.4,0,93.1,0,23.1,0,45.5,0,21.5,0,,1,22.3,0,15.7,0
2003/12/1,20:15,10.2,0,90.8,0,23.1,0,45.5,0,21.5,0,,1,22.2,0,15.8,0
2003/12/1,20:30,10,0,90.9,0,23.1,0,45,0,21.5,0,,1,22.2,0,16,0
2003/12/1,20:45,10.2,0,89.7,0,23,0,45.1,0,21.5,0,,1,22.2,0,16.1,0
2003/12/1,21:00,10.7,0,86.8,0,23.1,0,44.7,0,21.5,0,,1,22.1,0,16.2,0
2003/12/1,21:15,10.3,0,89.9,0,23.1,0,45.6,0,21.5,0,,1,22.1,0,16.4,0
2003/12/1,21:30,10.3,0,89.2,0,23.4,0,44.6,0,21.5,0,,1,22.2,0,13.8,0
2003/12/1,21:45,10.2,0,90.1,0,23.4,0,44.8,0,21.4,0,,1,22.2,0,13.7,0
2003/12/1,22:00,9.9,0,89.9,0,23.6,0,44.1,0,21.4,0,,1,22.3,0,13.9,0
2003/12/1,22:15,10.1,0,91.3,0,23.4,0,44.6,0,21.4,0,,1,22.2,0,14,0
2003/12/1,22:30,10.1,0,91.5,0,23.5,0,44.2,0,21.4,0,,1,22.3,0,13.7,0
2003/12/1,22:45,9.8,0,91.8,0,23.3,0,44.8,0,21.3,0,,1,22.2,0,13.8,0
2003/12/1,23:00,10,0,92,0,23.3,0,44.5,0,21.3,0,,1,22.2,0,14,0
2003/12/1,23:15,9.8,0,93.5,0,23.4,0,44.3,0,21.2,0,,1,22.3,0,14.1,0
2003/12/1,23:30,9.6,0,95.1,0,23.1,0,44.8,0,21.2,0,,1,22.2,0,14.2,0
2003/12/1,23:45,9.4,0,96.5,0,23.5,0,44.2,0,21.1,0,,1,22.3,0,14.4,0
2003/12/2,0:00,9.4,0,98,0,23.3,0,45.2,0,21.1,0,,1,22.3,0,14.5,0
2003/12/2,0:15,9.4,0,98.3,0,23.4,0,45.7,0,21,0,,1,22.3,0,14.6,0
2003/12/2,0:30,9.1,0,100,0,23.4,0,46.5,0,21,0,,1,22.4,0,14.7,0
2003/12/2,0:45,8.8,0,100,0,23.6,0,46.9,0,21,0,,1,22.5,0,14.8,0
2003/12/2,1:00,8.8,0,100,0,23.5,0,48.4,0,20.9,0,,1,22.5,0,14.9,0
2003/12/2,1:15,8.8,0,100,0,23.6,0,48.5,0,20.9,0,,1,22.6,0,15,0
2003/12/2,1:30,9,0,99.4,0,23.5,0,48.5,0,20.8,0,,1,22.6,0,15.1,0
2003/12/2,1:45,8.8,0,99.4,0,23.4,0,47.9,0,20.8,0,,1,22.6,0,15.3,0
2003/12/2,2:00,8.9,0,99.2,0,23.3,0,47.7,0,20.7,0,,1,22.5,0,15.5,0
2003/12/2,2:15,8.9,0,98.6,0,23.2,0,47.5,0,20.7,0,,1,22.4,0,15.6,0
2003/12/2,2:30,8.9,0,97.6,0,23.1,0,47.4,0,20.6,0,,1,22.4,0,15.8,0
2003/12/2,2:45,8.9,0,97.2,0,23,0,47.3,0,20.6,0,,1,22.3,0,15.9,0
2003/12/2,3:00,9.1,0,96.6,0,23,0,47.2,0,20.6,0,,1,22.3,0,16.1,0
2003/12/2,3:15,9.1,0,94.9,0,22.9,0,47.1,0,20.5,0,,1,22.2,0,16.3,0
2003/12/2,3:30,9.1,0,92.3,0,22.9,0,47.1,0,20.5,0,,1,22.2,0,16.4,0
2003/12/2,3:45,9,0,92.1,0,22.9,0,47.1,0,20.4,0,,1,22.1,0,16.6,0
2003/12/2,4:00,9,0,91.4,0,22.8,0,47,0,20.4,0,,1,22.1,0,16.7,0
2003/12/2,4:15,9,0,91.4,0,22.8,0,47,0,20.4,0,,1,22.1,0,16.9,0
2003/12/2,4:30,9,0,91.2,0,22.8,0,47.1,0,20.3,0,,1,22,0,17,0
2003/12/2,4:45,9,0,91.1,0,22.7,0,47.1,0,20.3,0,,1,22,0,17.2,0
2003/12/2,5:00,9,0,90.8,0,22.6,0,47.1,0,20.2,0,,1,21.9,0,17.3,0
2003/12/2,5:15,9,0,90.3,0,22.6,0,46.8,0,20.2,0,,1,21.9,0,17.4,0
2003/12/2,5:30,9,0,89.9,0,22.6,0,47.3,0,20.1,0,,1,21.9,0,17.6,0
2003/12/2,5:45,8.9,0,89.8,0,22.6,0,47,0,20.1,0,,1,21.9,0,17.7,0
2003/12/2,6:00,8.9,0,90.8,0,22.6,0,46.8,0,20.1,0,,1,21.9,0,17.9,0
2003/12/2,6:15,8.7,0,89.2,0,22.6,0,46.7,0,20,0,,1,21.8,0,18,0
2003/12/2,6:30,8.8,0,89.4,0,22.5,0,46.6,0,20,0,,1,21.8,0,18.1,0
2003/12/2,6:45,8.9,0,88.3,0,22.5,0,46.4,0,20,0,,1,21.8,0,18.3,0
2003/12/2,7:00,8.9,0,88.4,0,22.4,0,46.4,0,19.9,0,,1,21.8,0,18.4,0
2003/12/2,7:15,9,0,87.4,0,22.4,0,46.6,0,19.9,0,,1,21.8,0,16,0
2003/12/2,7:30,9.1,0,85.8,0,22.6,0,47.3,0,19.9,0,,1,21.9,0,14.2,0
2003/12/2,7:45,9.2,0,84.8,0,22.7,0,47.4,0,19.9,0,,1,22,0,14.3,0
2003/12/2,8:00,9.3,0,84.1,0,23,0,46.7,0,19.9,0,,1,22,0,14.5,0
2003/12/2,8:15,9.5,0,82.6,0,23.1,0,46.3,0,19.9,0,,1,22.1,0,14.6,0
2003/12/2,8:30,9.5,0,82.3,0,23,0,46.4,0,19.8,0,,1,22.1,0,14.7,0
2003/12/2,8:45,9.7,0,82.5,0,23.2,0,46.2,0,19.8,0,,1,22.3,0,14.9,0
2003/12/2,9:00,9.7,0,82.8,0,23.1,0,46.1,0,19.8,0,,1,22.3,0,15,0
2003/12/2,9:15,10,0,79.7,0,23.1,0,45.9,0,19.9,0,,1,22.3,0,15.2,0
2003/12/2,9:30,10.1,0,78.1,0,23.4,0,45.5,0,19.9,0,,1,22.3,0,15.4,0
2003/12/2,9:45,10.6,0,74.3,0,23.4,0,45.8,0,20,0,,1,22.4,0,15.1,0
2003/12/2,10:00,10.9,0,72.8,0,23.4,0,45.9,0,20.2,0,,1,22.4,0,15.2,0
2003/12/2,10:15,11,0,73.5,0,23.5,0,45.7,0,20.3,0,,1,22.4,0,15.4,0
2003/12/2,10:30,11.2,0,71.6,0,23.5,0,45.7,0,20.4,0,,1,22.4,0,15.5,0
2003/12/2,10:45,11.8,0,71.3,0,23.6,0,45.5,0,20.5,0,,1,22.4,0,15.7,0
2003/12/2,11:00,12.2,0,67.8,0,23.8,0,45.2,0,20.6,0,,1,22.4,0,15.8,0
2003/12/2,11:15,12.6,0,69.8,0,23.9,0,45.1,0,20.7,0,,1,22.5,0,16,0
2003/12/2,11:30,12.8,0,67.3,0,24,0,44.6,0,20.8,0,,1,22.5,0,16.1,0
2003/12/2,11:45,13.6,0,62.9,0,24.2,0,43.9,0,20.9,0,,1,22.5,0,16.3,0
2003/12/2,12:00,13.9,0,59.5,0,24.3,0,43.2,0,20.9,0,,1,22.5,0,16.5,0
2003/12/2,12:15,13.7,0,57.8,0,24.2,0,43.4,0,21,0,,1,22.6,0,15.6,0
2003/12/2,12:30,14.3,0,55.7,0,24.3,0,43.4,0,21,0,,1,22.6,0,15.7,0
2003/12/2,12:45,14,0,57.5,0,24.2,0,43.9,0,21,0,,1,22.7,0,15.8,0
2003/12/2,13:00,14.2,0,56.4,0,24.2,0,44,0,21,0,,1,22.7,0,16,0
2003/12/2,13:15,14.4,0,54.7,0,24.1,0,44.2,0,21,0,,1,22.7,0,16.1,0
2003/12/2,13:30,14.5,0,53.4,0,24,0,44.2,0,21,0,,1,22.7,0,16.3,0
2003/12/2,13:45,14.4,0,52.3,0,23.9,0,44.1,0,21,0,,1,22.8,0,16.4,0
2003/12/2,14:00,14.7,0,50.8,0,23.9,0,44.4,0,21,0,,1,22.8,0,16.6,0
2003/12/2,14:15,14.5,0,50.7,0,23.8,0,44.3,0,21,0,,1,22.8,0,16.7,0
2003/12/2,14:30,14.5,0,52.8,0,23.8,0,44.6,0,21,0,,1,22.8,0,16.9,0
2003/12/2,14:45,14.2,0,52.3,0,23.7,0,44.5,0,21,0,,1,22.8,0,17.1,0
2003/12/2,15:00,13.8,0,54.8,0,23.7,0,44.5,0,21,0,,1,22.8,0,17.2,0
2003/12/2,15:15,13.6,0,55.3,0,23.7,0,44.7,0,21,0,,1,22.8,0,15.9,0
2003/12/2,15:30,13.2,0,56.6,0,23.6,0,44.8,0,20.9,0,,1,22.7,0,16,0
2003/12/2,15:45,12.8,0,55,0,23.6,0,44.6,0,20.9,0,,1,22.7,0,16.2,0
2003/12/2,16:00,12.7,0,53.6,0,23.5,0,44.5,0,20.8,0,,1,22.7,0,16.4,0
2003/12/2,16:15,12.3,0,54.8,0,23.4,0,44.2,0,20.8,0,,1,22.6,0,16.5,0
2003/12/2,16:30,12.2,0,56.1,0,23.4,0,44.2,0,20.8,0,,1,22.6,0,16.7,0
2003/12/2,16:45,12.3,0,57.1,0,23.3,0,44.1,0,20.7,0,,1,22.5,0,16.8,0
2003/12/2,17:00,12.1,0,59.9,0,23.2,0,44,0,20.7,0,,1,22.5,0,17,0
2003/12/2,17:15,11.7,0,63.8,0,23.2,0,44,0,20.7,0,,1,22.4,0,17.1,0
2003/12/2,17:30,11.2,0,68,0,23.1,0,44.2,0,20.6,0,,1,22.4,0,17.3,0
2003/12/2,17:45,11,0,70.7,0,23.1,0,44.2,0,20.6,0,,1,22.3,0,17.4,0
2003/12/2,18:00,11,0,71.7,0,23,0,44.2,0,20.6,0,,1,22.3,0,17.6,0
2003/12/2,18:15,11,0,71.1,0,23,0,44.2,0,20.6,0,,1,22.2,0,17.7,0
2003/12/2,18:30,10.9,0,71.2,0,23.3,0,44.1,0,20.5,0,,1,22.2,0,16.2,0
2003/12/2,18:45,10.9,0,70.4,0,23.2,0,45,0,20.5,0,,1,22.3,0,16.3,0
2003/12/2,19:00,10.8,0,70.9,0,23.4,0,44.7,0,20.5,0,,1,22.4,0,14.8,0
2003/12/2,19:15,10.8,0,69.7,0,23.3,0,45.2,0,20.5,0,,1,22.4,0,14.9,0
2003/12/2,19:30,10.8,0,68.4,0,23.4,0,45.2,0,20.5,0,,1,22.4,0,15,0
2003/12/2,19:45,10.6,0,67.4,0,23.3,0,45.2,0,20.5,0,,1,22.4,0,15.1,0
2003/12/2,20:00,10.6,0,65.7,0,23.3,0,45,0,20.5,0,,1,22.4,0,15.3,0
2003/12/2,20:15,10.3,0,65.3,0,23.3,0,45,0,20.6,0,,1,22.4,0,14.7,0
2003/12/2,20:30,10.1,0,63.2,0,23.3,0,45.5,0,20.7,0,,1,22.4,0,14.8,0
2003/12/2,20:45,9.8,0,65.6,0,23.3,0,45.9,0,20.7,0,,1,22.4,0,15,0
2003/12/2,21:00,9.7,0,60.8,0,23.4,0,46.3,0,20.7,0,,1,22.4,0,15.1,0
2003/12/2,21:15,9.4,0,62.5,0,23.4,0,47.1,0,20.7,0,,1,22.3,0,15.3,0
2003/12/2,21:30,9.2,0,63.8,0,23.4,0,46.5,0,20.6,0,,1,22.3,0,15.4,0
2003/12/2,21:45,9.1,0,65.2,0,23.4,0,46.6,0,20.6,0,,1,22.2,0,15.6,0
2003/12/2,22:00,9.1,0,65.8,0,23.3,0,46,0,20.6,0,,1,22.2,0,15.8,0
2003/12/2,22:15,9.2,0,67.5,0,23.4,0,46.7,0,20.7,0,,1,22.1,0,15.9,0
2003/12/2,22:30,9.2,0,67.4,0,23.4,0,46.9,0,20.7,0,,1,22.2,0,16.1,0
2003/12/2,22:45,9.1,0,68,0,23.5,0,46.4,0,20.7,0,,1,22.2,0,16.2,0
2003/12/2,23:00,9.2,0,66.5,0,23.4,0,46.4,0,20.7,0,,1,22.2,0,15.2,0
2003/12/2,23:15,9.3,0,62.3,0,23.6,0,46.6,0,20.7,0,,1,22.2,0,15.3,0
2003/12/2,23:30,9.3,0,62.2,0,23.4,0,47.1,0,20.7,0,,1,22.1,0,15.5,0
2003/12/2,23:45,9.2,0,61.4,0,23.6,0,46.7,0,20.7,0,,1,22.1,0,15.6,0
2003/12/3,0:00,9.1,0,63.4,0,23.5,0,46.8,0,20.7,0,,1,22.2,0,14.5,0
2003/12/3,0:15,8.8,0,65.7,0,23.7,0,47.5,0,20.7,0,,1,22.3,0,14.6,0
2003/12/3,0:30,8.9,0,62.7,0,23.9,0,47.7,0,20.7,0,,1,22.4,0,13.4,0
2003/12/3,0:45,8.7,0,64.3,0,23.9,0,48.5,0,20.7,0,,1,22.5,0,13.6,0
2003/12/3,1:00,8.6,0,61.5,0,23.8,0,49.1,0,20.7,0,,1,22.6,0,13.7,0
2003/12/3,1:15,8.5,0,60.5,0,23.7,0,48.6,0,20.6,0,,1,22.6,0,13.8,0
2003/12/3,1:30,8.5,0,59.2,0,23.6,0,47.5,0,20.6,0,,1,22.5,0,14,0
2003/12/3,1:45,8.5,0,57.5,0,23.5,0,47,0,20.6,0,,1,22.5,0,14.1,0
2003/12/3,2:00,8.5,0,58.4,0,23.4,0,46.8,0,20.6,0,,1,22.4,0,14.3,0
2003/12/3,2:15,8.5,0,58.4,0,23.3,0,46.4,0,20.5,0,,1,22.3,0,14.4,0
2003/12/3,2:30,8.5,0,58.2,0,23.3,0,46.3,0,20.5,0,,1,22.3,0,14.6,0
2003/12/3,2:45,8.3,0,59.5,0,23.2,0,46.3,0,20.5,0,,1,22.2,0,14.7,0
2003/12/3,3:00,8.3,0,60,0,23.2,0,45.9,0,20.4,0,,1,22.2,0,14.9,0
2003/12/3,3:15,8.2,0,61.8,0,23.1,0,45.8,0,20.4,0,,1,22.1,0,15,0
2003/12/3,3:30,8.1,0,63.4,0,23.1,0,45.7,0,20.4,0,,1,22.1,0,15.2,0
2003/12/3,3:45,7.8,0,63.5,0,23.1,0,45.5,0,20.3,0,,1,22.1,0,15.4,0
2003/12/3,4:00,7.8,0,62.5,0,23,0,45.4,0,20.3,0,,1,22,0,15.6,0
2003/12/3,4:15,7.5,0,65.9,0,23,0,45.5,0,20.2,0,,1,22,0,15.7,0
2003/12/3,4:30,7.3,0,68.1,0,23,0,45.5,0,20.2,0,,1,22,0,15.9,0
2003/12/3,4:45,7.1,0,68.6,0,22.9,0,45.4,0,20.1,0,,1,21.9,0,16.1,0
2003/12/3,5:00,7,0,67.5,0,23,0,45,0,20.1,0,,1,21.9,0,16.2,0
2003/12/3,5:15,7.1,0,64.3,0,22.9,0,45,0,20,0,,1,21.9,0,16.4,0
2003/12/3,5:30,7,0,63.1,0,22.9,0,44.8,0,20,0,,1,21.9,0,16.6,0
2003/12/3,5:45,7,0,60.2,0,22.9,0,44.9,0,19.9,0,,1,21.9,0,16.7,0
2003/12/3,6:00,6.9,0,58.8,0,22.8,0,45,0,19.9,0,,1,21.9,0,16.9,0
2003/12/3,6:15,6.8,0,57.7,0,22.9,0,44.6,0,19.9,0,,1,21.9,0,17,0
2003/12/3,6:30,6.8,0,54.5,0,22.9,0,44.7,0,19.8,0,,1,21.9,0,15.9,0
2003/12/3,6:45,6.8,0,54.9,0,22.8,0,44.7,0,19.8,0,,1,21.9,0,16,0
2003/12/3,7:00,6.9,0,54.5,0,22.9,0,44.9,0,19.9,0,,1,22,0,16.1,0
2003/12/3,7:15,6.9,0,53.2,0,23.1,0,46.2,0,20,0,,1,22.1,0,16.2,0
2003/12/3,7:30,7.2,0,51.5,0,23.1,0,46.5,0,20.1,0,,1,22.2,0,14.7,0
2003/12/3,7:45,7.6,0,50.9,0,23.2,0,47.9,0,20.3,0,,1,22.3,0,14.9,0
2003/12/3,8:00,8,0,50.5,0,23.2,0,47.1,0,20.4,0,,1,22.3,0,15,0
2003/12/3,8:15,8.2,0,51.1,0,23.3,0,46.2,0,20.5,0,,1,22.1,0,15.1,0
2003/12/3,8:30,8.1,0,52.7,0,23.2,0,46.2,0,20.7,0,,1,22.1,0,13.8,0
2003/12/3,8:45,8.3,0,49.6,0,23.3,0,45.1,0,20.8,0,,1,22.2,0,13.9,0
2003/12/3,9:00,8.5,0,50.3,0,23.3,0,45.3,0,20.9,0,,1,22.2,0,14,0
2003/12/3,9:15,9,0,48,0,23.5,0,47.1,0,21,0,,1,22.4,0,14.2,0
2003/12/3,9:30,9.7,0,45.9,0,23.5,0,48.4,0,21.2,0,,1,22.4,0,14.3,0
2003/12/3,9:45,9.8,0,46.7,0,23.5,0,47.8,0,21.3,0,,1,22.5,0,14.4,0
2003/12/3,10:00,10,0,46.3,0,23.6,0,46.3,0,21.4,0,,1,22.5,0,14.6,0
2003/12/3,10:15,10,0,47.7,0,23.7,0,45.6,0,21.5,0,,1,22.5,0,14.7,0
2003/12/3,10:30,10.2,0,48.4,0,23.7,0,44.9,0,21.6,0,,1,22.5,0,14.9,0
2003/12/3,10:45,10.3,0,48.5,0,23.7,0,44.5,0,21.6,0,,1,22.5,0,15,0
2003/12/3,11:00,10.1,0,49.8,0,23.7,0,44.2,0,21.6,0,,1,22.5,0,15.2,0
2003/12/3,11:15,9.7,0,49.2,0,23.7,0,44,0,21.6,0,,1,22.5,0,15.4,0
2003/12/3,11:30,10.3,0,47.6,0,23.8,0,43.4,0,21.7,0,,1,22.5,0,15.5,0
2003/12/3,11:45,10.3,0,46.8,0,23.8,0,43,0,21.6,0,,1,22.5,0,15.7,0
2003/12/3,12:00,10.4,0,45.5,0,23.8,0,43,0,21.6,0,,1,22.5,0,15.9,0
2003/12/3,12:15,11.1,0,44.8,0,23.9,0,42.6,0,21.6,0,,1,22.4,0,16,0
2003/12/3,12:30,10.4,0,45.4,0,23.8,0,42.9,0,21.6,0,,1,22.4,0,16.2,0
2003/12/3,12:45,10.6,0,45.9,0,23.8,0,42.9,0,21.6,0,,1,22.4,0,16.4,0
2003/12/3,13:00,10.8,0,46.7,0,23.8,0,42.9,0,21.5,0,,1,22.4,0,16.5,0
2003/12/3,13:15,11.1,0,46.1,0,23.8,0,43.1,0,21.5,0,,1,22.4,0,16.7,0
2003/12/3,13:30,10.5,0,47.4,0,23.7,0,43.2,0,21.5,0,,1,22.4,0,16.9,0
2003/12/3,13:45,10.9,0,49.2,0,23.7,0,43.1,0,21.4,0,,1,22.4,0,14,0
2003/12/3,14:00,10.9,0,47.9,0,23.7,0,44.4,0,21.4,0,,1,22.5,0,14.1,0
2003/12/3,14:15,10.5,0,50.3,0,23.7,0,44.8,0,21.4,0,,1,22.5,0,13.8,0
2003/12/3,14:30,10.7,0,49.9,0,23.5,0,43.9,0,21.4,0,,1,22.6,0,13.2,0
2003/12/3,14:45,9.5,0,54.2,0,23.2,0,44.6,0,21.3,0,,1,22.5,0,13.4,0
2003/12/3,15:00,9.2,0,56,0,23,0,45,0,21.3,0,,1,22.4,0,13.9,0
2003/12/3,15:15,8.7,0,57.2,0,22.9,0,45.3,0,21.3,0,,1,22.3,0,13.9,0
2003/12/3,15:30,8.6,0,59.8,0,23,0,45.1,0,21.3,0,,1,22.4,0,14,0
2003/12/3,15:45,8.3,0,63.3,0,22.9,0,45.6,0,21.3,0,,1,22.4,0,13.9,0
2003/12/3,16:00,8.3,0,66.8,0,23,0,45.2,0,21.3,0,,1,22.4,0,14,0
2003/12/3,16:15,7.9,0,72,0,23.1,0,45.7,0,21.3,0,,1,22.3,0,14.2,0
2003/12/3,16:30,7.7,0,72.9,0,23,0,44.9,0,21.3,0,,1,22.3,0,14.1,0
2003/12/3,16:45,7.5,0,76.2,0,23.1,0,43.9,0,21.3,0,,1,22.3,0,13.7,0
2003/12/3,17:00,7.3,0,76.8,0,23.1,0,43.4,0,21.3,0,,1,22.3,0,13.2,0
2003/12/3,17:15,7.1,0,78.7,0,23,0,43.3,0,21.4,0,,1,22.3,0,13.3,0
2003/12/3,17:30,7.4,0,80,0,23.1,0,42.9,0,21.4,0,,1,22.3,0,13.5,0
2003/12/3,17:45,7.4,0,75.8,0,23.1,0,42.5,0,21.4,0,,1,22.3,0,13.6,0
2003/12/3,18:00,7.3,0,80.8,0,23.2,0,42.2,0,21.4,0,,1,22.2,0,13.8,0
2003/12/3,18:15,6.9,0,82.4,0,23.1,0,42.1,0,21.4,0,,1,22.2,0,13.9,0
2003/12/3,18:30,6.8,0,84,0,23.1,0,42,0,21.4,0,,1,22.1,0,14.1,0
2003/12/3,18:45,6.8,0,81.9,0,23.2,0,41.8,0,21.4,0,,1,22,0,14.2,0
2003/12/3,19:00,6.9,0,81.5,0,23,0,41.7,0,21.4,0,,1,22,0,14.4,0
2003/12/3,19:15,6.8,0,80.9,0,23,0,41.6,0,21.4,0,,1,22.1,0,14.5,0
2003/12/3,19:30,6.8,0,81.5,0,22.9,0,42.4,0,21.4,0,,1,22.1,0,14.7,0
2003/12/3,19:45,6.9,0,77.1,0,23,0,42.3,0,21.4,0,,1,22.2,0,14.8,0
2003/12/3,20:00,7,0,73.9,0,22.9,0,42.4,0,21.4,0,,1,22.3,0,14.9,0
2003/12/3,20:15,7.1,0,75.5,0,23,0,42.4,0,21.4,0,,1,22.3,0,15.1,0
2003/12/3,20:30,6.9,0,75.3,0,23.1,0,42.5,0,21.4,0,,1,22.3,0,15.2,0
2003/12/3,20:45,6.8,0,76.3,0,23.1,0,43.3,0,21.4,0,,1,22.4,0,14.4,0
2003/12/3,21:00,6.4,0,80.7,0,23.1,0,43.8,0,21.5,0,,1,22.5,0,14.5,0
2003/12/3,21:15,6.1,0,83.5,0,23.1,0,44.4,0,21.5,0,,1,22.5,0,14.6,0
2003/12/3,21:30,6.2,0,81,0,23.1,0,45.4,0,21.5,0,,1,22.4,0,14.7,0
2003/12/3,21:45,6,0,82.4,0,23.1,0,46,0,21.5,0,,1,22.3,0,14.9,0
2003/12/3,22:00,6,0,84.1,0,23.1,0,46.5,0,21.5,0,,1,22.3,0,15,0
2003/12/3,22:15,5.7,0,84.5,0,23.2,0,46.8,0,21.4,0,,1,22.3,0,15.2,0
2003/12/3,22:30,5.4,0,87.1,0,23.1,0,47.5,0,21.4,0,,1,22.3,0,14.7,0
2003/12/3,22:45,5.4,0,88.7,0,23.1,0,48.4,0,21.4,0,,1,22.3,0,14.7,0
2003/12/3,23:00,7.3,0,79.6,0,23.1,0,48.6,0,21.3,0,,1,22.3,0,14.9,0
2003/12/3,23:15,7.7,0,76.5,0,23.1,0,47.7,0,21.3,0,,1,22.3,0,15,0
2003/12/3,23:30,7.9,0,75,0,22.9,0,47.9,0,21.3,0,,1,22.1,0,15.1,0
2003/12/3,23:45,7.1,0,79.5,0,22.8,0,48.3,0,21.2,0,,1,22,0,15.3,0
2003/12/4,0:00,6.9,0,80.9,0,22.7,0,48.9,0,21.2,0,,1,22,0,15.5,0
2003/12/4,0:15,6.8,0,79.9,0,22.7,0,49.4,0,21.2,0,,1,21.9,0,15.6,0
2003/12/4,0:30,6.7,0,75.8,0,22.6,0,49.5,0,21.2,0,,1,21.9,0,15.8,0
2003/12/4,0:45,6.7,0,76,0,22.5,0,49.2,0,21.1,0,,1,21.9,0,15.9,0
2003/12/4,1:00,6.5,0,75.4,0,22.5,0,49.2,0,21.1,0,,1,21.8,0,16.1,0
2003/12/4,1:15,6.2,0,74.3,0,22.3,0,49.2,0,21,0,,1,21.7,0,16.2,0
2003/12/4,1:30,6.1,0,73.6,0,22.3,0,49.5,0,21,0,,1,21.7,0,16.4,0
2003/12/4,1:45,6,0,73.4,0,22.2,0,49.6,0,20.9,0,,1,21.6,0,16.5,0
2003/12/4,2:00,5.8,0,75.1,0,22.2,0,49.6,0,20.8,0,,1,21.6,0,16.7,0
2003/12/4,2:15,5.6,0,73.7,0,22.1,0,49.7,0,20.8,0,,1,21.5,0,16.8,0
2003/12/4,2:30,5.8,0,73.2,0,22,0,49.8,0,20.7,0,,1,21.5,0,17,0
2003/12/4,2:45,5.5,0,74.8,0,21.9,0,49.9,0,20.7,0,,1,21.4,0,17.1,0
2003/12/4,3:00,5.2,0,75.7,0,21.9,0,49.9,0,20.6,0,,1,21.4,0,17.3,0
2003/12/4,3:15,5.1,0,76.1,0,21.9,0,49.9,0,20.5,0,,1,21.3,0,17.4,0
2003/12/4,3:30,5.2,0,73.7,0,21.8,0,49.8,0,20.4,0,,1,21.3,0,17.6,0
2003/12/4,3:45,5.1,0,73,0,21.7,0,49.7,0,20.4,0,,1,21.2,0,17.7,0
2003/12/4,4:00,4.9,0,73.2,0,21.7,0,49.9,0,20.3,0,,1,21.2,0,17.8,0
2003/12/4,4:15,4.7,0,73.8,0,21.7,0,49.9,0,20.2,0,,1,21.2,0,18,0
2003/12/4,4:30,4.6,0,74.7,0,21.6,0,49.9,0,20.1,0,,1,21.1,0,18.1,0
2003/12/4,4:45,4.6,0,75.4,0,21.6,0,49.9,0,20,0,,1,21.1,0,18.2,0
2003/12/4,5:00,4.7,0,74.6,0,21.6,0,49.7,0,20,0,,1,21.1,0,18.3,0
2003/12/4,5:15,4.7,0,74.6,0,21.6,0,49.6,0,19.9,0,,1,21,0,18.5,0
2003/12/4,5:30,4.6,0,75.5,0,21.6,0,50.1,0,19.8,0,,1,21,0,18.6,0
2003/12/4,5:45,4.6,0,75.9,0,21.6,0,49.8,0,19.8,0,,1,21,0,18.7,0
2003/12/4,6:00,4.4,0,76.8,0,21.5,0,49.6,0,19.7,0,,1,20.9,0,18.8,0
2003/12/4,6:15,4.4,0,75.9,0,21.5,0,49.5,0,19.7,0,,1,20.9,0,18.9,0
2003/12/4,6:30,4.4,0,75.5,0,21.4,0,49.6,0,19.6,0,,1,20.9,0,19,0
2003/12/4,6:45,4.2,0,76.7,0,21.8,0,48.7,0,19.6,0,,1,21,0,16.3,0
2003/12/4,7:00,4.2,0,75.6,0,22.4,0,47.9,0,19.6,0,,1,21.2,0,16.4,0
2003/12/4,7:15,4.4,0,73.5,0,22.4,0,46.9,0,19.6,0,,1,21.4,0,16.5,0
2003/12/4,7:30,4.5,0,70.7,0,22.5,0,47.5,0,19.6,0,,1,21.5,0,16.6,0
2003/12/4,7:45,4.6,0,71.4,0,22.6,0,46.7,0,19.7,0,,1,21.6,0,16.8,0
2003/12/4,8:00,4.8,0,68.3,0,22.5,0,44.8,0,19.8,0,,1,21.6,0,13.2,0
2003/12/4,8:15,5.1,0,64.8,0,22.6,0,43.5,0,19.9,0,,1,21.7,0,13.4,0
2003/12/4,8:30,5.6,0,63.2,0,22.5,0,43.7,0,20,0,,1,21.6,0,13.5,0
2003/12/4,8:45,5.5,0,61.2,0,22.6,0,44.3,0,20,0,,1,21.6,0,12.9,0
2003/12/4,9:00,5.9,0,61,0,22.7,0,44.4,0,20.2,0,,1,21.7,0,13.1,0
2003/12/4,9:15,6.1,0,62.7,0,22.6,0,45.8,0,20.3,0,,1,21.7,0,13.2,0
2003/12/4,9:30,5.8,0,59.5,0,22.4,0,46.2,0,20.4,0,,1,21.6,0,13.4,0
2003/12/4,9:45,6.1,0,57.3,0,22.4,0,45.7,0,20.4,0,,1,21.6,0,13.5,0
2003/12/4,10:00,6.1,0,58.9,0,22.4,0,45.1,0,20.5,0,,1,21.5,0,13.7,0
2003/12/4,10:15,6.2,0,56.6,0,22.5,0,44.3,0,20.5,0,,1,21.5,0,13.8,0
2003/12/4,10:30,6.5,0,53.4,0,22.6,0,43.9,0,20.6,0,,1,21.4,0,14,0
2003/12/4,10:45,6.7,0,53,0,22.8,0,43.7,0,20.7,0,,1,21.4,0,14.2,0
2003/12/4,11:00,7,0,50.4,0,22.8,0,43.4,0,20.8,0,,1,21.4,0,14.3,0
2003/12/4,11:15,7.5,0,48.6,0,22.9,0,43.2,0,20.9,0,,1,21.4,0,14.5,0
2003/12/4,11:30,7.7,0,47.6,0,23,0,42.9,0,21,0,,1,21.5,0,14.6,0
2003/12/4,11:45,7.6,0,46.8,0,23.1,0,42.2,0,21.1,0,,1,21.5,0,14.8,0
2003/12/4,12:00,8.1,0,45.3,0,23.3,0,42,0,21.2,0,,1,21.5,0,14.9,0
2003/12/4,12:15,7.4,0,49.1,0,23.3,0,41.6,0,21.3,0,,1,21.5,0,15.1,0
2003/12/4,12:30,8.3,0,44,0,23.3,0,41.8,0,21.3,0,,1,21.5,0,15.3,0
2003/12/4,12:45,8.6,0,44.2,0,23.2,0,41.9,0,21.3,0,,1,21.5,0,15.5,0
2003/12/4,13:00,8.5,0,42.8,0,23.1,0,42,0,21.4,0,,1,21.6,0,15.7,0
2003/12/4,13:15,8.3,0,43.8,0,23,0,42.1,0,21.4,0,,1,21.6,0,15.8,0
2003/12/4,13:30,8.2,0,45.4,0,22.9,0,42.6,0,21.4,0,,1,21.6,0,15.3,0
2003/12/4,13:45,8.6,0,45.1,0,22.9,0,42.8,0,21.4,0,,1,21.6,0,15.4,0
2003/12/4,14:00,7.8,0,51,0,22.8,0,42.7,0,21.4,0,,1,21.6,0,15.5,0
2003/12/4,14:15,6.9,0,54.6,0,22.7,0,43,0,21.4,0,,1,21.6,0,13.8,0
2003/12/4,14:30,6.7,0,54.6,0,22.7,0,43.1,0,21.4,0,,1,21.6,0,13.9,0
2003/12/4,14:45,6.7,0,53.8,0,22.6,0,43.2,0,21.4,0,,1,21.6,0,14.1,0
2003/12/4,15:00,6.6,0,54,0,22.6,0,43.2,0,21.3,0,,1,21.6,0,14.2,0
2003/12/4,15:15,6.6,0,53.4,0,22.5,0,43.2,0,21.3,0,,1,21.6,0,14.4,0
2003/12/4,15:30,6.2,0,56.7,0,22.5,0,43,0,21.3,0,,1,21.6,0,14.5,0
2003/12/4,15:45,5.5,0,60.5,0,22.4,0,42.7,0,21.2,0,,1,21.6,0,14.7,0
2003/12/4,16:00,5.5,0,62.7,0,22.5,0,42.7,0,21.2,0,,1,21.5,0,14.8,0
2003/12/4,16:15,4.8,0,64,0,22.3,0,42.9,0,21.1,0,,1,21.5,0,15,0
2003/12/4,16:30,4.8,0,64.6,0,22.4,0,42.8,0,21.1,0,,1,21.4,0,15.2,0
2003/12/4,16:45,4.8,0,64.9,0,22.4,0,42.8,0,21.1,0,,1,21.4,0,15.4,0
2003/12/4,17:00,4.7,0,65.3,0,22.4,0,42.8,0,21,0,,1,21.3,0,15.5,0